Lapse_Rate
3.9 3.9 4.1 3.4 3.1 3.0 2.9 2.6 2.6 2.4 2.2 2.0 1.8 1.6 1.5 0.6 0.2 0.0 -2.3 -0.1 0.5 3.3 3.5 6.0 5.3 5.9 5.7 5.5 6.3 6.1 6.5 6.5 6.5 6.5 6.5 5.6 6.4 4.9 4.8 5.6 5.6 5.7 4.6 6.0 6.8
3.5 3.5 3.4 3.5 3.3 3.1 2.6 2.5 2.2 2.2 1.9 1.8 1.7 1.7 1.3 0.5 -1.0 -1.4 -0.9 0.8 2.0 3.1 3.9 4.6 5.6 5.5 4.4 5.0 5.0 5.5 6.5 6.5 6.5 6.5 6.5 5.9 6.0 5.8 5.5 5.1 5.4 6.0 5.5 5.7 5.6
3.5 3.5 3.5 3.2 3.1 2.9 2.8 2.1 2.1 2.0 2.0 1.8 1.5 1.3 1.1 0.3 -0.1 1.7 2.2 1.0 2.3 3.5 4.9 4.6 5.8 6.9 5.1 5.3 5.0 5.6 6.5 6.5 6.4 6.1 5.9 5.9 5.4 5.7 6.1 6.5 6.0 6.1 6.3 5.7 4.5
3.4 3.5 3.6 3.2 3.1 2.9 2.7 2.5 2.2 2.2 2.3 2.1 1.5 1.3 1.0 -0.2 6.5 6.0 3.3 1.2 2.7 4.2 6.4 6.1 6.3 6.0 6.1 6.5 4.1 6.5 5.8 5.9 6.2 6.3 5.6 6.3 5.9 6.2 5.7 5.4 5.7 6.1 5.8 5.6 4.8
3.5 3.5 3.6 3.5 3.1 2.8 2.5 2.5 2.4 2.0 2.0 1.7 1.3 1.3 0.7 2.2 0.8 3.8 3.1 1.8 3.7 5.0 5.2 5.3 5.1 5.1 6.5 6.0 5.2 6.5 6.4 5.5 5.5 5.1 4.3 4.5 5.7 5.9 5.8 5.2 4.8 5.3 5.3 5.2 5.7
3.3 3.5 3.5 3.8 3.5 3.0 2.5 2.2 2.1 2.0 1.6 1.6 1.3 1.6 1.3 6.2 3.2 3.7 3.0 2.8 3.8 4.5 5.5 4.5 4.6 4.2 5.5 5.4 6.2 4.9 5.0 5.4 4.9 4.9 4.6 6.2 6.0 5.9 5.3 4.9 5.0 5.3 4.5 4.0 3.7
3.5 3.6 3.5 3.4 3.5 3.2 2.7 2.1 1.4 1.5 1.8 1.8 1.9 2.7 3.1 1.4 5.4 4.0 3.9 3.3 4.5 5.2 5.5 4.9 4.3 5.9 5.8 6.5 4.4 4.7 6.5 6.5 5.9 4.9 6.2 5.0 6.5 6.5 4.7 4.7 4.4 3.9 3.6 3.9 3.7
3.7 3.6 3.5 3.5 3.3 3.0 2.6 2.1 1.3 1.1 1.7 2.2 2.5 3.0 1.4 2.6 3.5 3.5 4.8 5.2 5.0 5.0 5.0 5.5 5.3 5.0 6.3 5.2 5.4 6.5 6.5 6.5 6.5 6.4 5.8 5.8 6.5 6.5 4.1 4.0 3.9 3.6 3.3 3.4 3.2
3.9 3.5 3.4 3.3 3.3 2.9 1.7 1.4 1.3 1.5 1.5 2.1 2.1 2.8 3.1 4.3 4.3 4.4 4.9 6.1 5.5 5.5 5.1 7.1 7.1 5.5 5.7 6.5 6.5 6.5 6.5 6.5 6.5 6.4 6.5 6.5 6.5 6.6 3.4 3.6 3.9 3.2 3.1 3.0 2.8
4.1 3.9 3.3 3.1 3.2 2.5 1.5 1.1 1.5 1.9 2.7 3.6 5.2 5.3 2.7 5.5 6.9 6.5 5.0 6.3 6.5 6.1 6.4 6.7 3.2 6.5 6.5 6.5 6.5 6.5 6.5 6.5 6.5 6.5 6.5 6.5 6.5 6.5 4.3 3.6 3.5 3.5 1.8 2.7 2.9
4.1 4.0 3.7 2.9 2.9 2.2 1.0 0.7 3.6 4.6 4.3 3.3 3.7 4.6 6.8 6.9 7.3 6.9 6.8 7.2 7.4 5.5 6.5 5.9 6.5 6.5 6.5 6.5 6.5 6.5 6.5 6.5 6.5 6.5 6.5 6.5 6.5 6.5 5.6 5.3 4.8 3.4 2.3 2.6 2.2
3.7 3.7 3.5 3.0 2.5 2.0 1.7 0.8 4.6 6.2 6.0 3.6 5.0 5.7 6.0 6.5 6.9 6.5 6.8 5.9 5.9 6.5 6.5 6.5 6.5 6.5 6.5 6.5 6.5 6.5 6.5 6.5 6.5 6.5 6.5 6.5 6.5 6.5 6.5 6.0 4.1 3.3 2.7 1.9 1.7
3.4 3.1 3.1 2.7 2.1 0.7 -0.2 -0.3 2.6 3.3 5.9 6.4 4.3 5.5 5.5 6.7 6.3 5.9 5.9 5.7 6.5 6.5 6.5 6.5 6.5 6.5 6.5 6.5 6.5 6.5 6.5 6.5 6.5 6.5 6.5 6.5 6.5 6.5 6.5 5.9 4.7 3.5 1.8 1.8 1.5
2.9 2.7 2.8 1.7 1.3 1.6 -0.4 0.3 0.6 4.9 6.5 6.5 6.5 6.4 7.0 7.0 6.5 6.9 6.3 5.8 6.4 6.5 6.5 6.5 6.4 6.5 6.5 6.5 6.5 6.5 6.5 6.5 6.5 6.5 6.5 6.5 6.5 6.5 6.5 6.5 6.5 3.5 1.7 1.5 0.8
2.6 2.4 1.9 1.4 -0.5 1.0 4.4 2.8 1.2 4.5 6.5 6.5 6.6 7.0 6.7 5.8 6.6 6.5 6.4 6.2 6.5 6.5 6.5 6.5 6.5 6.5 6.5 6.5 6.5 6.5 6.5 6.5 6.5 6.5 6.5 6.5 6.5 6.5 6.5 6.5 6.5 6.4 3.1 2.4 2.1
2.1 1.4 0.6 -0.2 -1.0 -1.3 0.8 1.8 5.0 6.5 6.5 6.5 6.5 6.5 6.5 6.5 6.7 6.4 6.3 6.2 6.3 6.5 6.5 6.5 6.3 6.5 6.5 6.5 6.5 6.5 6.5 6.5 6.5 6.5 6.5 6.5 6.5 6.5 6.5 6.5 6.5 6.0 4.5 2.0 1.9
0.5 0.1 -0.6 0.8 0.8 2.3 1.4 4.4 6.5 6.5 6.5 6.5 6.5 6.5 6.5 6.5 6.5 6.5 6.5 6.5 6.5 6.5 6.5 6.5 6.5 6.5 6.4 6.5 6.5 6.5 6.5 6.5 6.5 6.5 6.5 6.5 6.5 6.5 6.5 6.5 6.5 6.5 5.4 4.0 2.9
-1.1 -1.6 -1.2 -0.5 -0.6 2.1 2.8 6.1 6.5 6.5 6.5 6.5 6.5 6.5 6.5 6.5 6.5 6.5 6.5 6.5 6.5 6.5 6.5 6.5 6.5 6.5 6.5 6.5 6.5 6.5 6.5 6.5 6.5 6.5 6.5 6.5 6.5 6.5 6.5 6.0 5.8 5.9 5.1 3.5 2.8
-2.0 -0.6 0.9 1.8 1.6 2.1 3.9 6.5 6.5 6.5 6.5 6.5 6.5 6.5 6.5 6.5 6.5 6.5 6.5 6.5 6.5 6.5 6.5 6.5 6.5 6.5 6.5 6.5 6.5 6.5 6.5 6.5 6.5 6.5 6.5 6.5 6.5 6.5 6.5 6.5 6.3 6.0 4.9 3.8 3.6
-2.3 -0.2 2.0 4.6 3.6 3.6 6.0 6.5 6.5 6.5 6.5 6.5 6.5 6.5 6.5 6.5 6.5 6.5 6.5 6.5 6.5 6.5 6.4 6.5 6.5 6.5 6.5 6.3 6.4 6.5 6.5 6.5 6.5 6.5 6.5 6.5 6.5 6.5 6.5 6.5 6.5 6.5 5.2 4.7 3.8
-0.0 3.4 4.3 4.3 3.6 3.8 6.5 6.5 6.5 6.6 6.3 6.5 6.5 6.5 6.5 6.5 6.5 6.5 6.5 6.5 6.5 6.5 6.4 6.5 6.5 6.5 6.5 6.5 6.5 6.5 6.5 6.5 6.5 6.5 6.5 6.5 6.5 6.5 6.5 6.5 6.5 6.5 5.9 5.4 4.1
0.2 6.4 4.7 4.4 5.7 5.9 6.5 6.5 6.2 6.5 6.5 6.5 6.5 6.5 6.5 6.5 6.5 6.5 6.5 6.5 6.3 6.5 6.5 6.5 6.5 6.5 6.5 6.5 6.5 6.5 6.5 6.5 6.5 6.5 6.5 6.5 6.5 6.5 6.5 6.5 6.0 5.4 5.6 5.4 5.6
2.9 3.1 3.8 4.3 6.5 6.5 6.5 6.5 6.5 6.5 6.5 6.5 6.5 6.5 6.5 6.5 6.5 6.5 6.5 6.4 6.0 6.5 6.5 6.5 6.5 6.5 6.5 6.5 6.5 6.5 6.5 6.5 6.5 6.5 6.5 6.5 6.5 6.5 6.4 6.3 5.7 5.5 5.9 5.0 5.9
3.3 6.5 3.2 3.0 3.9 6.5 6.5 6.5 6.5 6.4 6.5 6.3 6.5 6.4 6.5 6.5 6.5 6.5 6.5 6.5 6.2 6.3 6.6 5.4 6.5 6.5 6.5 6.5 6.5 6.5 6.5 6.5 6.5 6.5 6.5 6.5 6.5 6.5 6.5 6.5 5.8 5.9 4.7 4.0 5.2
3.5 6.0 5.8 6.5 6.2 6.5 6.5 6.5 6.5 6.5 6.4 6.2 6.5 6.5 6.5 6.5 6.5 6.5 6.5 6.5 6.4 6.6 6.2 6.5 6.5 6.5 6.5 6.5 6.5 6.5 6.5 6.5 6.5 6.5 6.5 6.5 6.5 6.5 6.5 6.5 6.2 6.2 5.7 5.4 5.3
4.5 5.3 4.5 5.2 5.6 6.5 6.5 6.5 6.5 6.5 6.5 6.5 6.5 6.5 6.5 6.5 6.5 6.5 6.5 6.5 6.5 6.5 6.5 6.5 6.5 6.5 6.5 6.5 6.5 6.5 6.5 6.5 6.5 6.5 6.5 6.5 6.5 6.5 6.4 6.1 5.7 5.3 5.8 6.2 6.1
3.3 4.1 4.6 5.1 6.5 6.5 6.5 6.5 6.5 6.5 6.3 6.2 6.4 6.5 6.5 6.5 6.3 5.9 5.2 4.9 6.1 6.5 6.5 6.5 6.5 6.5 6.5 6.5 6.5 6.5 6.5 6.5 6.5 6.5 6.5 6.5 6.5 6.5 6.5 6.4 5.8 5.7 5.7 5.9 6.0
Wind_Speed
17 17 16 14 11 10 9 8 9 9 9 9 10 10 11 12 14 2 8 12 11 21 3 2 6 4 4 4 4 3 2 4 6 5 7 8 5 6 6 3 2 3 7 5 5
17 17 17 15 14 12 10 8 8 9 9 9 9 9 9 11 4 9 14 19 22 8 4 5 4 5 3 5 3 4 4 6 6 3 5 11 9 2 5 7 5 4 4 5 5
16 16 16 16 15 14 12 10 9 8 8 8 7 8 8 10 3 8 11 28 25 17 7 7 0 1 4 3 4 4 6 5 10 12 5 5 7 4 3 0 2 2 3 3 4
17 16 16 15 15 14 13 11 9 8 8 7 6 6 7 1 4 3 5 27 20 14 5 4 4 3 5 6 6 2 6 8 14 14 5 7 4 3 4 6 6 4 3 5 5
17 16 16 16 15 14 13 12 10 9 8 6 4 4 2 1 9 6 7 25 13 7 8 6 5 5 5 6 4 5 8 9 14 14 7 6 9 8 6 6 8 6 6 4 3
19 18 17 17 16 15 14 13 12 9 7 6 3 2 1 3 5 9 10 15 11 11 7 7 8 8 4 8 8 7 9 12 11 14 6 6 6 3 6 6 7 5 8 9 6
20 20 18 18 18 18 17 14 13 11 8 5 3 4 3 11 3 7 10 8 7 10 7 11 10 1 0 7 6 7 6 7 8 9 8 8 6 6 9 7 9 10 8 9 9
19 21 21 19 20 20 18 17 16 14 9 4 3 3 7 6 9 6 4 4 7 8 7 6 9 7 5 3 7 3 3 2 7 6 6 6 9 8 10 9 11 11 9 8 9
19 21 22 21 20 21 19 18 18 13 7 7 3 2 9 9 6 9 10 6 10 6 7 10 4 3 3 4 5 6 2 4 9 4 3 6 10 12 10 9 11 10 10 10 9
21 19 23 22 20 18 18 21 8 2 3 5 5 3 7 5 4 7 9 11 5 6 5 6 4 3 3 4 5 4 2 5 6 5 3 9 11 20 12 11 11 10 11 9 9
21 21 20 23 19 15 7 3 3 0 4 10 8 5 3 5 7 5 7 7 4 5 4 2 4 5 8 7 7 5 5 8 11 11 4 6 7 9 10 5 7 8 7 9 10
22 22 21 20 18 12 4 4 5 4 5 18 13 11 12 7 3 6 7 6 5 5 4 2 7 11 9 7 7 8 10 12 8 10 7 4 7 5 5 5 8 9 8 9 7
22 22 21 19 14 4 6 10 1 12 1 4 8 6 7 4 7 9 10 6 4 5 5 6 9 10 9 10 8 9 9 6 8 6 2 3 6 5 7 4 6 6 8 7 12
23 22 21 18 1 3 5 10 11 2 3 3 6 5 4 4 2 6 9 7 3 8 6 6 15 11 7 8 8 15 12 8 5 1 5 2 5 4 6 8 6 10 9 10 11
24 23 20 10 5 3 5 4 10 3 3 5 5 3 5 7 2 4 6 4 8 7 6 7 3 2 3 3 3 8 6 6 1 1 3 7 2 7 5 10 10 10 11 13 16
28 23 19 2 4 11 10 6 3 2 3 3 5 6 5 3 3 4 5 5 3 2 1 5 3 3 3 7 3 5 1 5 4 3 2 5 4 2 5 5 8 9 7 10 3
32 26 8 3 5 3 4 4 3 0 4 3 5 6 5 5 4 8 5 4 4 3 4 4 4 2 4 2 7 9 6 4 4 3 5 3 3 7 3 4 5 4 6 12 12
36 28 6 5 12 4 4 5 3 4 6 6 6 8 6 6 4 5 6 4 3 5 2 3 1 3 2 4 1 2 4 4 4 3 4 5 4 4 3 5 11 10 9 12 10
30 3 2 4 9 3 4 4 3 5 7 2 6 4 3 3 5 3 4 2 3 9 7 4 4 2 11 5 3 4 4 4 3 3 2 4 5 6 4 8 10 10 9 9 8
3 3 4 6 9 4 3 0 4 11 4 5 3 3 3 4 4 4 3 4 4 6 1 1 1 5 6 5 4 4 3 1 3 2 4 4 4 5 4 7 9 8 8 9 9
2 3 4 6 4 4 1 4 4 4 5 4 3 3 4 3 4 2 2 3 4 3 7 3 4 5 4 2 2 5 4 3 3 4 4 2 5 4 6 5 6 4 6 6 6
4 2 2 3 3 2 3 3 2 3 4 5 2 2 3 3 3 2 1 3 3 2 3 3 4 0 4 7 5 3 1 3 4 3 2 2 7 3 4 7 8 6 6 8 7
3 3 3 5 3 1 4 6 4 3 5 4 7 3 3 3 3 1 4 4 6 4 4 0 3 3 8 5 6 6 3 3 4 3 6 4 4 5 13 11 9 12 15 6 4
2 3 4 3 1 3 3 3 3 4 5 4 3 6 4 2 1 2 3 2 5 4 8 7 2 5 5 4 1 5 7 5 7 4 4 11 16 16 19 13 10 14 8 7 5
2 2 1 1 3 0 1 1 4 2 3 4 6 5 4 3 3 3 4 4 5 8 4 5 4 3 4 6 5 8 12 13 9 9 10 11 16 16 8 2 3 1 5 8 6
2 3 4 3 4 2 2 5 6 4 4 4 5 4 6 4 2 2 2 2 1 2 3 3 3 3 4 8 10 13 14 13 15 13 13 14 14 4 2 1 5 7 6 6 5
3 3 2 5 4 1 1 2 4 3 7 7 4 3 7 3 1 2 5 5 5 5 3 4 5 3 4 4 7 7 6 7 6 2 3 2 1 3 5 6 4 3 4 5 7
Wind_Direction
341 340 345 347 340 329 311 296 288 287 285 290 291 294 300 307 312 229 228 215 196 243 272 36 205 206 133 221 213 156 111 220 226 188 271 309 339 321 300 111 54 136 129 178 136
340 337 337 341 346 340 325 311 297 292 293 291 292 298 308 318 281 246 229 212 211 230 162 208 241 153 176 202 223 146 188 234 217 230 269 319 312 245 20 7 1 73 60 85 49
338 338 336 337 339 343 335 319 306 293 284 286 297 306 312 324 302 246 213 198 206 203 197 170 58 108 211 161 217 194 205 232 274 252 240 255 297 304 141 234 210 295 157 143 87
335 335 335 333 333 335 335 327 310 293 283 290 299 306 312 274 207 246 308 191 181 174 166 157 156 191 182 198 217 252 242 226 256 257 251 254 252 240 186 224 195 222 238 117 107
333 333 332 329 327 326 327 325 318 302 290 282 294 315 347 131 250 271 46 157 155 157 186 177 164 180 178 191 229 178 259 257 251 258 238 269 258 244 203 251 278 267 268 233 173
328 330 328 327 324 322 321 318 317 312 285 273 270 297 182 255 234 159 114 150 166 169 188 159 201 203 246 209 159 220 226 253 266 261 243 212 257 218 264 241 273 255 253 258 204
324 325 325 328 324 321 319 316 315 305 301 270 247 240 250 238 10 140 143 173 167 180 174 210 223 158 40 322 242 242 252 285 260 249 226 188 266 220 247 261 259 272 253 250 234
326 323 321 327 323 320 315 313 308 299 277 235 239 287 248 251 260 291 204 198 196 200 217 193 199 214 179 240 355 345 95 306 280 226 243 127 258 263 248 238 247 253 256 247 239
324 321 319 322 323 318 312 304 300 295 238 181 155 202 265 295 182 220 178 200 191 208 234 259 251 204 47 73 5 7 248 291 286 218 251 162 264 255 252 234 237 244 244 228 227
324 321 318 319 318 317 312 299 276 79 158 181 264 334 272 232 198 164 202 209 174 203 250 186 56 53 33 82 216 243 287 279 266 290 290 277 263 264 234 222 229 242 250 219 200
327 323 320 317 317 315 330 351 87 187 233 199 189 234 280 263 134 181 171 167 191 123 161 198 90 217 227 204 206 240 244 254 275 270 236 243 254 296 253 222 233 243 220 205 208
325 323 321 314 312 302 277 232 218 113 264 226 237 246 278 275 271 190 141 149 133 166 171 28 217 222 221 225 227 242 251 270 282 271 191 302 307 301 312 246 201 208 222 235 250
317 316 319 316 315 270 216 232 341 10 181 248 200 206 231 180 198 189 152 180 143 160 176 184 242 216 231 260 247 247 224 227 217 283 216 287 318 323 303 302 300 246 228 234 223
316 321 322 323 260 214 231 248 239 50 39 244 184 247 200 166 246 173 178 150 175 187 200 212 244 242 259 244 247 254 239 227 253 31 273 85 277 302 281 303 270 272 278 257 237
313 318 320 309 284 239 228 122 135 98 111 153 163 191 162 155 160 204 150 131 184 211 128 240 64 20 261 209 295 239 232 230 198 119 48 327 87 269 334 305 290 288 287 287 252
310 311 324 44 199 243 301 329 108 61 125 224 142 176 126 184 275 145 116 96 130 91 237 233 238 233 227 295 290 295 44 39 62 90 8 250 194 273 268 275 301 302 339 336 140
311 309 295 228 228 345 282 99 65 126 345 198 179 151 166 166 212 139 130 115 122 79 298 352 279 247 238 346 12 35 48 358 343 347 220 21 357 227 294 346 298 271 108 70 59
318 313 181 206 232 331 5 53 95 355 264 264 145 142 178 159 201 150 136 153 218 164 130 163 341 106 346 132 62 21 139 148 236 213 254 343 245 254 116 11 14 58 335 82 86
321 321 237 247 223 132 66 60 173 218 245 85 48 80 146 40 96 110 136 190 233 176 170 186 241 63 68 39 74 321 61 155 131 346 109 238 282 319 53 49 41 55 50 41 49
310 339 275 240 126 68 72 131 240 220 7 57 104 54 87 1 66 72 37 347 66 45 62 214 16 357 2 33 42 119 203 8 17 328 280 292 253 233 37 52 39 33 15 21 15
325 21 263 135 82 63 188 227 223 36 49 56 95 82 82 98 72 56 58 12 58 33 61 76 92 298 29 15 57 1 0 17 100 127 219 263 255 201 151 125 99 62 9 345 348
337 37 301 90 67 97 247 271 164 98 30 57 104 120 130 103 75 122 219 111 70 72 70 335 132 321 262 278 284 180 95 95 132 282 300 294 254 45 91 11 342 312 225 223 216
343 276 313 103 157 243 265 266 65 76 45 44 35 52 91 120 98 40 79 107 97 80 138 262 23 21 342 5 3 70 102 123 99 100 233 259 246 329 330 316 286 286 291 301 235
356 351 328 49 200 113 301 314 111 46 55 76 45 48 78 85 154 116 117 210 106 95 110 84 102 160 200 235 193 312 312 240 195 183 232 243 281 281 280 292 248 276 268 266 260
172 280 200 328 335 10 110 289 136 108 88 62 19 74 121 83 27 75 32 44 53 138 76 106 184 196 252 273 294 287 273 274 252 232 230 265 258 271 287 317 0 297 341 59 50
54 36 338 290 289 11 10 24 91 59 55 65 95 53 66 87 87 124 58 81 200 227 109 19 209 164 258 245 258 275 281 277 265 261 259 262 266 333 225 40 27 23 53 35 13
320 330 103 297 325 48 219 47 56 90 38 67 115 91 76 34 356 237 185 188 199 149 131 143 138 115 262 346 321 283 240 257 234 135 213 220 212 309 2 348 348 76 41 353 328